Flag for United Kingdom Weather past 2 weeks in Cheltenham, England, United Kingdom

Now
61 °F

Scattered clouds.


Feels Like: 61 °F
Forecast: 48 / 64 °F
Wind: 12 mph from Southwest

Location: Staverton Private

Current Time: Aug 21, 2014 at 4:02:56 PM

Latest Report: Aug 21, 2014 at 3:20 PM


Visibility: N/A

Pressure: 29.92 "Hg

Humidity: 72%

Dew point: 52 °F

Location of CheltenhamLocation

Historic Weather in Cheltenham — Graph

°F

Cheltenham temperature yesterday

Maximum temperature yesterday: 64 °F (at 2:20 PM)
Minimum temperature yesterday: 46 °F (at 6:50 AM)
Average temperature yesterday: 58 °F

Past Weeks' High & Low Weather Summary

 TemperatureHumidityPressure
High75 °F (Aug 6, 3:20 PM)100% (Aug 7, 7:20 AM)30.18 "Hg (Aug 7, 7:20 AM)
Low46 °F (Aug 20, 6:50 AM)48% (Aug 20, 12:50 PM)29.30 "Hg (Aug 10, 10:50 AM)
Average63 °F71%29.83 "Hg
* Reported Aug 6 2:20 PM — Aug 21 2:50 PM, Cheltenham, Weather by CustomWeather, © 2014

Note: Actual official high and low records may vary slightly from our data, if they occured in-between our weather recording intervals... More about our weather records

Advertising

Cheltenham weather history for previous 24 hours

 ConditionsComfort  
Time TempWeatherWind HumidityBarometerVisibility
2:50 PM
Aug 21
63 °FScattered showers. Scattered clouds.13 mph68%29.92 "HgN/A
2:20 PM61 °FScattered showers. Scattered clouds.15 mph68%29.95 "HgN/A
1:50 PM61 °FScattered clouds.15 mph68%29.95 "HgN/A
1:20 PM63 °FPassing clouds.14 mph64%29.95 "HgN/A
12:50 PM59 °FPassing clouds.12 mph72%29.95 "HgN/A
12:20 PM57 °FPassing clouds.12 mph72%29.98 "HgN/A
11:50 AM59 °FPassing clouds.13 mph72%29.98 "HgN/A
11:20 AM59 °FPassing clouds.13 mph77%29.98 "HgN/A
10:50 AM57 °FPassing clouds.12 mph82%29.98 "HgN/A
10:20 AM57 °FPassing clouds.10 mph82%29.98 "HgN/A
9:50 AM57 °FPassing clouds.9 mph77%29.98 "HgN/A
9:20 AM57 °FPassing clouds.9 mph77%29.98 "HgN/A
8:50 AM55 °FPassing clouds.8 mph77%29.98 "HgN/A
8:20 AM54 °FPassing clouds.7 mph88%30.01 "HgN/A
7:50 AM52 °FPassing clouds.3 mph88%30.01 "HgN/A
7:20 AM48 °FSunny.2 mph87%30.01 "Hg10 mi
6:50 AM46 °FClear.No wind87%30.01 "Hg10 mi
7:20 PM
Aug 20
61 °FPassing clouds.6 mph59%30.04 "HgN/A
6:50 PM59 °FPassing clouds.No wind68%30.04 "HgN/A
6:20 PM59 °FPassing clouds.3 mph68%30.04 "HgN/A
5:50 PM59 °FScattered clouds.5 mph68%30.04 "HgN/A
5:20 PM59 °FSprinkles. Scattered clouds.9 mph72%30.04 "HgN/A
4:50 PM61 °FPartly sunny.13 mph63%30.04 "HgN/A
4:20 PM63 °FScattered clouds.7 mph56%30.04 "HgN/A
Weather by CustomWeather, © 2014

See weather overviewHow to use our weather pages